Location: Cisewo
(53.3833°N, 14.9000°E)
Time: 06:47:28
(UTC+00:00)

BEESAT 3 - Pass Details

Date: 30 September 2021
Orbit: 481 x 510 km, 64.9° (Epoch: 24 October)

Event Time Altitude Azimuth Distance (km) Brightness Sun altitude
Rises 19:05:51 0° 316° (NW) 2,616 ? -22.1°
Reaches altitude 10° 19:08:12 10° 327° (NNW) 1,733 ? -22.4°
Enters shadow 19:11:24 30° 22° (NNE) 929 ? -22.8°
